Flag for Canada Weather past 2 weeks in Québec, Quebec, Canada

45 °F

Light rain. Fog.

Feels Like: 40 °F
Forecast: 32 / 47 °F
Wind: 9 mph from West

Location: Quebec Weather Station

Current Time: Nov 27, 2015 at 9:07:47 AM

Latest Report: Nov 27, 2015 at 8:00 AM

Visibility: 4 mi

Pressure: 30.14 "Hg

Humidity: 93%

Dew point: 43 °F

Location of QuébecLocation

Historic Weather in Québec — Graph


Québec temperature yesterday

Maximum temperature yesterday: 48 °F (at 1:00 PM)
Minimum temperature yesterday: 23 °F (at 12:00 AM)
Average temperature yesterday: 36 °F

Past Weeks' High & Low Weather Summary

High48 °F (Nov 20, 7:52 AM)100% (Nov 12, 6:00 PM)30.78 "Hg (Nov 12, 6:00 PM)
Low10 °F (Nov 25, 7:00 AM)37% (Nov 23, 2:00 PM)29.19 "Hg (Nov 13, 7:00 AM)
Average34 °F76%30.11 "Hg
* Reported Nov 12 8:00 AM — Nov 27 8:00 AM, Québec, Weather by CustomWeather, © 2015

Note: Actual official high and low records may vary slightly from our data, if they occured in-between our weather recording intervals... More about our weather records


Québec weather history for previous 24 hours

Time TempWeatherWind HumidityBarometerVisibility
8:00 AM
Fri, Nov 27
45 °FLight rain. Fog.9 mph93%30.14 "Hg4 mi
7:00 AM46 °FSprinkles. Overcast.10 mph87%30.16 "Hg10 mi
6:00 AM46 °FSprinkles. Overcast.9 mph87%30.18 "Hg11 mi
5:00 AM46 °FSprinkles. Overcast.9 mph82%30.19 "Hg14 mi
4:48 AM46 °FSprinkles. Overcast.9 mph82%30.19 "Hg13 mi
4:00 AM43 °FMostly cloudy.7 mph81%30.20 "Hg15 mi
3:00 AM39 °FOvercast.2 mph93%30.24 "Hg15 mi
2:00 AM39 °FOvercast.2 mph87%30.28 "Hg15 mi
1:00 AM39 °FOvercast.5 mph87%30.29 "Hg15 mi
12:00 AM39 °FSprinkles. Overcast.5 mph93%30.32 "Hg15 mi
11:00 PM
Thu, Nov 26
39 °FOvercast.3 mph87%30.35 "Hg15 mi
10:00 PM39 °FOvercast.2 mph93%30.38 "Hg15 mi
9:00 PM39 °FOvercast.5 mph93%30.40 "Hg15 mi
8:47 PM39 °FOvercast.No wind87%30.41 "Hg15 mi
8:00 PM39 °FSprinkles. Overcast.2 mph87%30.43 "Hg15 mi
7:00 PM39 °FSprinkles. Mostly cloudy.No wind87%30.44 "Hg15 mi
6:00 PM43 °FMostly cloudy.2 mph76%30.46 "Hg15 mi
5:00 PM45 °FSprinkles. Mostly cloudy.5 mph66%30.47 "Hg15 mi
4:00 PM48 °FBroken clouds.10 mph54%30.48 "Hg30 mi
3:00 PM48 °FPartly sunny.9 mph54%30.49 "Hg30 mi
2:00 PM48 °FPartly sunny.9 mph54%30.50 "Hg30 mi
1:00 PM48 °FBroken clouds.7 mph54%30.52 "Hg30 mi
12:00 PM45 °FPartly sunny.2 mph57%30.55 "Hg20 mi
11:00 AM39 °FBroken clouds.No wind65%30.59 "Hg20 mi
10:00 AM36 °FBroken clouds.2 mph70%30.62 "Hg15 mi
9:00 AM32 °FBroken clouds.3 mph75%30.62 "Hg15 mi
Weather by CustomWeather, © 2015

See weather overviewHow to use our weather pages